Fort Leonard Wood, MO

1:17 PM CDT on August 21, 2017 (GMT -0500)
Waynesville Regional At Forney Field

Weather History for KTBN - February, 2013

Change the Weather History Date:

Tuesday, February 19, 2013

  Actual Average Record
Temperature  
Mean Temperature 30 °F -  
Max Temperature 38 °F 46 °F 75 °F (2017)
Min Temperature 22 °F 32 °F -3 °F (2015)
Degree Days  
Heating Degree Days 34    
Moisture  
Dew Point 12 °F    
Average Humidity 50    
Maximum Humidity 76    
Minimum Humidity 22    
Precipitation  
Precipitation 0.00 in - - ()
Sea Level Pressure  
Sea Level Pressure 30.20 in    
Wind  
Wind Speed 10 mph (WNW)    
Max Wind Speed 18 mph    
Max Gust Speed 29 mph    
Visibility 10 miles    
Events      
Averages and records for this station are not official NWS values.
T = Trace of Precipitation, MM = Missing Value Source: NWS Daily Summary

Daily Weather History Graph

Daily Weather History Graph

Search for Another Location

Airport or City:

Trip Planner

Search our weather history database for the weather conditions in past years. The results will help you decide how hot, cold, wet, or windy it might be!

Date:

Astronomy

Feb. 19, 2013 Rise Set
Actual Time 6:52 AM CST 5:52 PM CST
Civil Twilight 6:26 AM CST 6:18 PM CST
Nautical Twilight 5:55 AM CST 6:49 PM CST
Astronomical Twilight 5:25 AM CST 7:19 PM CST
Moon 12:27 PM CST (2/19) 2:21 AM CST (2/19)
Length of Visible Light 11h 52m
Length of Day
10h 59m
Waxing Gibbous, 67% of the Moon is Illuminated
Feb 19
Waxing Gibbous
Feb 25
Full
Mar 4
Last Quarter
Mar 11
New
Mar 19
First Quarter

Hourly Weather History & Observations

Time (CST) Temp. Windchill Dew Point Humidity Pressure Visibility Wind Dir Wind Speed Gust Speed Precip Events Conditions
12:55 AM 28.9 °F 19.2 °F 20.1 °F 70% 30.04 in 10.0 mi WNW 11.5 mph - N/A   Clear
1:55 AM 27.7 °F 17.6 °F 19.8 °F 72% 30.06 in 10.0 mi West 11.5 mph - N/A   Clear
2:55 AM 27.1 °F 18.9 °F 18.3 °F 69% 30.07 in 10.0 mi West 8.1 mph - N/A   Clear
3:55 AM 26.4 °F 19.8 °F 17.6 °F 69% 30.08 in 10.0 mi WSW 5.8 mph - N/A   Clear
4:55 AM 25.5 °F 17.8 °F 17.2 °F 71% 30.10 in 10.0 mi WSW 6.9 mph - N/A   Clear
5:55 AM 25.0 °F 15.5 °F 17.2 °F 72% 30.12 in 10.0 mi West 9.2 mph - N/A   Clear
6:55 AM 24.3 °F 15.4 °F 17.8 °F 76% 30.14 in 10.0 mi West 8.1 mph - N/A   Clear
7:55 AM 26.6 °F 16.8 °F 18.0 °F 70% 30.15 in 10.0 mi WNW 10.4 mph 16.1 mph N/A   Clear
8:55 AM 29.3 °F 20.2 °F 16.9 °F 60% 30.18 in 10.0 mi WNW 10.4 mph 20.7 mph N/A   Clear
9:55 AM 30.6 °F 19.8 °F 13.8 °F 50% 30.20 in 10.0 mi WNW 15.0 mph 21.9 mph N/A   Clear
10:55 AM 33.3 °F 22.8 °F 13.5 °F 44% 30.21 in 10.0 mi WNW 16.1 mph 25.3 mph N/A   Clear
11:55 AM 35.6 °F 26.2 °F 11.1 °F 36% 30.22 in 10.0 mi WNW 15.0 mph 23.0 mph N/A   Clear
12:55 PM 37.8 °F 30.7 °F 9.1 °F 31% 30.22 in 10.0 mi West 10.4 mph 28.8 mph N/A   Clear
1:55 PM 37.9 °F 28.9 °F 7.9 °F 29% 30.23 in 10.0 mi West 16.1 mph 24.2 mph N/A   Clear
2:55 PM 38.7 °F 29.5 °F 5.2 °F 25% 30.24 in 10.0 mi WNW 17.3 mph 24.2 mph N/A   Clear
3:55 PM 38.3 °F 28.7 °F 2.1 °F 22% 30.24 in 10.0 mi WNW 18.4 mph 25.3 mph N/A   Clear
4:55 PM 36.9 °F 28.7 °F 1.4 °F 22% 30.25 in 10.0 mi WNW 12.7 mph 19.6 mph N/A   Clear
6:55 PM 30.2 °F 26.7 °F 5.0 °F 34% 30.27 in 10.0 mi WNW 3.5 mph - N/A   Clear
7:55 PM 28.9 °F 23.9 °F 5.5 °F 37% 30.27 in 10.0 mi WNW 4.6 mph - N/A   Clear
8:55 PM 27.0 °F 23.0 °F 5.7 °F 41% 30.30 in 10.0 mi WNW 3.5 mph - N/A   Clear
9:55 PM 24.1 °F 18.2 °F 7.7 °F 50% 30.30 in 10.0 mi NNW 4.6 mph - N/A   Clear
10:55 PM 23.9 °F 18.0 °F 7.3 °F 49% 30.32 in 10.0 mi NW 4.6 mph - N/A   Clear
11:55 PM 22.6 °F 15.3 °F 8.4 °F 55% 30.34 in 10.0 mi NW 5.8 mph - N/A   Clear